{"data":{"norad_id":68465,"epoch":"2026-05-25T03:52:53.120352Z","epoch_age_seconds":60448,"freshness":"FRESH","line1":"1 68465U 26067BB  26145.16172593  .00002934  00000+0  15022-3 0  9992","line2":"2 68465  97.4512 103.8944 0004489 130.8306 229.3318 15.17386514  8449","mean_motion":15.17386514,"eccentricity":0.0004489,"inclination_deg":97.4512,"raan_deg":103.8944,"arg_perigee_deg":130.8306,"mean_anomaly_deg":229.3318,"bstar":0.00015022,"rev_number":844,"period_min":94.900013062855,"perigee_km":510.6490405289,"apogee_km":516.83657021817,"semimajor_km":6891.8798053735,"source":"CELESTRAK","updated_at":"2026-05-25T13:38:07.847121Z"}}